Temperature
16 16 16 16 16 16 15 15 15 15 15 15 14 14 14 14 14 14 14 14 14 14 13 13 13 13 13 13 13 13 13 13 13 13 13 12 12 12 12 12 12 12 12
16 16 16 16 15 15 15 15 15 15 15 14 14 14 14 14 14 14 14 14 13 13 13 13 13 13 13 13 13 13 13 13 13 12 12 12 12 12 12 12 12 12 12
15 15 15 15 15 15 15 15 15 14 14 14 14 14 14 14 14 14 14 13 13 13 13 13 13 13 13 13 12 12 12 12 12 12 12 12 12 12 12 12 12 11 11
15 15 15 15 15 15 15 15 15 14 14 14 14 14 14 14 14 13 13 13 13 13 13 13 13 13 13 12 12 12 12 12 12 12 12 12 11 11 11 11 11 11 11
15 15 14 15 15 15 15 14 14 14 14 14 14 14 14 13 13 13 13 13 13 13 13 13 12 12 12 12 12 12 12 12 12 12 11 11 11 11 11 11 11 11 11
15 14 14 14 14 14 14 14 14 14 14 13 13 13 13 13 13 13 13 13 13 13 13 12 12 12 12 12 12 12 12 12 11 11 11 11 11 11 11 11 11 11 11
14 14 14 14 14 14 14 14 14 14 14 13 13 13 13 13 13 13 13 13 12 12 12 12 12 12 12 12 12 12 12 11 11 11 11 11 11 11 11 11 11 11 11
14 14 13 13 13 13 13 13 13 13 13 13 13 13 13 13 12 12 12 12 12 12 12 12 12 12 12 12 12 12 11 11 11 11 11 11 11 11 11 11 11 11 10
13 13 13 13 13 13 13 13 13 13 12 12 12 12 12 12 12 12 12 12 12 12 12 12 12 12 11 11 11 11 11 11 11 11 11 11 11 11 10 10 10 10 10
13 13 13 13 13 12 12 12 12 12 12 12 12 12 12 12 12 12 12 12 11 11 11 11 11 11 11 11 11 11 11 11 11 11 11 11 10 10 10 10 10 10 10
12 12 12 12 12 12 12 12 12 12 12 12 11 11 11 11 11 11 11 11 11 11 11 11 11 11 11 11 10 10 10 10 10 10 10 10 10 10 10 10 10 9 9
12 12 12 11 11 11 11 11 11 11 11 11 11 11 11 11 11 11 11 11 11 11 11 11 11 10 10 10 10 10 10 10 10 10 10 10 10 10 10 9 9 9 9
12 11 11 11 11 11 11 11 11 10 10 10 10 10 10 10 11 11 11 11 10 10 10 10 10 10 10 10 10 10 9 9 9 9 9 9 9 9 9 9 9 9 9
11 11 10 10 10 10 10 10 10 10 10 10 9 10 10 10 10 10 10 10 10 10 10 9 9 9 9 9 9 9 9 9 9 9 8 8 8 8 8 8 8 8 8
10 10 10 10 10 9 10 10 10 10 9 9 9 9 9 9 10 10 10 10 9 9 9 9 9 9 9 9 9 8 8 8 8 8 8 8 8 8 8 8 8 8 8
9 9 9 9 9 9 9 9 9 9 9 9 9 9 9 9 9 9 9 9 9 9 9 8 8 8 8 8 8 8 8 8 8 8 8 8 8 7 7 7 7 7 7
9 8 8 8 8 8 8 8 8 8 8 8 8 8 8 8 8 8 8 8 8 8 8 8 8 8 8 8 8 8 8 8 8 7 7 7 7 7 7 7 7 7 7
8 8 8 8 8 8 8 8 8 8 8 8 8 8 8 8 8 8 8 8 7 7 7 7 7 7 7 7 7 7 7 7 7 7 7 7 7 7 7 7 7 7 7
7 7 7 7 7 7 7 7 7 7 7 7 7 7 8 7 7 7 7 7 7 7 7 7 7 6 6 6 6 7 7 7 6 6 6 6 6 6 6 6 6 6 6
7 7 7 7 7 6 6 7 6 6 6 7 7 7 7 7 7 7 6 6 6 6 6 6 6 6 6 6 6 6 6 6 6 6 6 6 6 6 6 6 6 6 6
6 6 6 6 6 6 6 6 6 6 6 6 6 6 6 6 6 6 6 6 6 6 5 5 5 5 5 5 5 5 5 5 6 6 6 6 6 5 5 5 5 5 5
6 6 5 5 5 5 5 5 5 5 5 5 5 5 5 5 5 5 5 5 5 5 5 5 5 5 5 5 5 5 5 5 5 5 5 5 5 5 5 5 5 5 5
5 5 5 5 5 5 5 5 5 5 4 4 4 5 5 5 5 5 5 5 5 5 5 5 4 4 4 4 4 5 5 5 5 4 4 4 4 4 4 4 4 4 4
5 4 4 4 4 4 4 4 4 4 4 4 4 4 4 4 4 4 4 4 4 4 4 4 4 4 4 4 4 4 4 4 4 4 4 4 4 4 4 4 4 4 4
4 4 4 4 3 3 3 3 3 3 3 3 3 3 3 3 3 3 3 3 3 3 3 3 3 3 3 3 3 3 3 4 4 3 3 3 3 3 3 3 3 3 3
3 3 3 3 3 3 3 3 2 3 2 3 3 3 3 3 3 3 3 3 3 3 3 3 3 3 3 3 3 3 3 3 3 3 3 3 3 3 3 3 3 3 3
Wind_Speed
0 0 2 2 2 2 2 2 2 2 2 2 2 2 2 2 2 2 2 2 2 2 1 1 1 0 1 0 1 1 1 2 1 1 1 2 3 3 3 3 4 6 6
1 1 1 1 2 1 1 1 1 2 3 3 2 2 2 2 2 2 2 3 3 3 2 2 2 2 1 1 1 0 0 1 2 1 0 1 2 3 3 3 3 4 6
1 1 1 1 1 1 1 1 2 2 2 2 2 2 2 2 2 3 3 2 3 3 3 3 2 2 2 2 2 1 1 1 1 2 1 1 1 1 2 2 2 2 3
1 1 1 1 1 1 1 1 1 2 2 2 2 3 3 3 3 3 2 2 2 2 2 2 2 3 3 3 3 2 2 2 1 2 1 1 1 1 2 2 1 1 1
1 2 1 1 1 1 1 1 1 1 1 1 2 2 3 3 3 2 2 2 2 2 2 2 2 1 1 1 2 2 2 2 2 2 2 1 1 1 2 3 3 2 2
1 1 1 1 1 1 1 1 1 1 1 1 2 3 2 2 2 2 2 2 2 3 3 3 3 3 2 3 2 3 3 3 3 3 3 3 3 3 2 3 3 2 2
0 1 2 1 1 1 1 1 1 1 2 2 1 1 2 2 3 3 3 2 3 4 4 4 4 4 4 3 3 4 4 4 5 4 4 5 4 4 3 3 3 3 4
0 0 1 1 1 1 2 2 2 2 2 2 2 2 1 2 3 4 4 4 4 4 4 4 3 3 3 3 3 4 4 4 5 5 4 5 4 4 5 5 5 3 2
0 0 0 0 1 1 2 2 2 2 2 2 2 2 2 3 4 5 5 4 4 4 4 3 2 3 3 2 2 3 4 4 5 6 6 5 6 6 5 2 2 2 3
1 1 1 1 1 1 2 2 2 2 2 3 3 3 3 3 4 5 6 4 4 4 3 3 3 3 4 4 3 3 4 4 3 3 4 5 5 6 7 6 5 4 3
1 1 1 1 2 2 2 2 2 2 2 3 3 3 3 3 5 6 6 4 4 4 4 3 3 4 4 5 4 4 5 4 3 3 3 4 4 4 4 5 5 4 4
1 2 2 1 2 2 1 1 1 2 2 3 3 3 3 3 3 5 6 7 5 4 5 4 4 6 6 6 5 6 6 4 3 3 3 3 4 4 3 4 5 5 5
1 2 2 1 1 1 1 2 2 2 2 3 3 3 3 2 2 4 6 7 7 5 4 5 5 7 6 6 7 7 5 3 3 3 4 5 4 4 3 3 4 4 4
2 2 2 2 2 2 1 1 2 2 2 3 3 3 3 2 2 2 3 4 5 5 4 4 5 6 5 6 6 6 5 5 5 5 4 4 3 3 3 3 3 3 3
3 2 2 2 2 2 2 2 2 3 4 4 3 3 3 3 4 4 4 4 4 5 4 3 3 3 4 4 4 4 4 5 5 5 4 4 3 4 4 3 3 3 4
3 3 2 2 2 2 2 3 4 4 5 6 6 6 5 6 7 6 6 7 7 6 4 4 5 5 5 5 5 5 5 6 6 5 5 5 5 4 4 3 3 4 4
4 3 2 2 2 3 3 3 4 4 5 5 6 7 7 7 8 8 8 7 7 6 5 5 6 6 5 5 6 6 6 6 5 5 5 5 5 4 4 4 4 4 5
3 3 3 2 3 3 3 4 4 4 4 4 5 6 7 8 8 8 7 4 4 4 4 5 6 5 5 5 5 6 5 5 5 6 6 5 5 5 5 5 5 5 5
4 3 3 3 3 3 4 4 4 5 4 4 3 4 6 6 7 7 5 4 5 5 5 5 5 5 5 5 6 6 6 6 5 5 5 6 5 5 5 5 5 7 6
3 4 4 3 4 4 4 3 4 4 4 4 4 3 3 3 3 4 4 5 5 6 6 6 5 6 5 5 5 5 5 5 5 5 5 5 5 5 6 6 6 5 6
3 4 5 4 4 4 4 4 4 4 4 4 4 4 4 4 5 5 5 5 6 6 6 5 5 5 5 5 4 5 5 5 5 5 5 5 5 5 5 5 6 6 5
3 4 3 3 4 4 4 4 4 4 5 5 5 5 6 5 4 4 5 5 5 5 4 4 4 4 4 4 5 5 5 6 5 5 5 5 5 5 4 5 5 5 5
4 4 4 3 3 5 5 4 4 4 5 5 5 5 4 4 4 5 5 5 5 4 4 4 4 4 4 4 4 5 6 6 5 5 5 5 5 5 5 5 6 6 7
4 4 4 4 4 4 4 4 4 5 5 5 5 5 5 5 5 5 5 5 4 4 4 4 4 6 6 5 5 6 6 6 6 6 6 6 6 5 5 5 6 6 6
4 4 4 4 4 4 4 5 5 5 5 5 5 5 5 5 5 5 4 4 5 5 5 4 4 5 6 6 6 6 6 6 6 6 5 5 6 6 6 6 6 6 6
3 4 4 4 4 4 4 5 5 5 5 5 5 5 5 5 5 5 4 4 5 5 4 4 5 6 6 6 6 7 7 7 8 8 6 5 6 6 6 6 7 6 6
Wind_Direction
180 155 143 153 153 154 160 154 162 167 162 170 185 178 169 170 169 170 199 201 202 206 213 192 205 142 107 80 29 30 67 113 148 266 128 141 135 136 135 156 159 157 162
205 203 170 132 137 149 174 170 179 189 182 183 191 182 187 179 180 192 214 216 203 203 216 222 207 182 178 164 123 132 146 133 145 188 146 131 158 168 158 161 166 174 172
191 197 141 139 141 146 213 208 193 205 200 182 180 183 196 198 199 208 218 223 214 211 207 207 219 178 188 191 172 197 180 148 145 153 206 204 183 168 153 184 188 167 188
182 183 170 171 154 170 205 244 237 223 207 194 185 185 199 205 210 212 213 229 233 234 212 208 221 200 198 195 185 197 171 159 173 164 188 204 204 201 156 187 224 239 222
176 180 172 170 161 199 200 235 258 263 249 196 191 203 206 213 219 197 210 229 222 234 230 223 232 192 149 189 185 188 172 176 186 191 206 198 207 194 201 198 205 217 227
167 146 136 142 160 216 221 251 269 280 268 224 217 213 215 234 200 196 231 216 225 233 231 223 210 203 200 196 193 191 177 184 196 199 215 211 218 209 210 208 196 193 243
123 126 130 121 149 217 254 256 261 258 271 271 244 226 201 196 189 203 232 241 232 236 238 228 229 219 197 196 209 218 228 234 222 208 212 217 213 203 196 216 216 213 218
11 93 133 153 183 228 231 227 235 255 259 256 251 235 195 231 226 225 233 241 249 240 241 236 223 215 221 198 210 221 229 240 239 232 222 224 216 204 196 205 215 225 238
1 264 148 181 217 230 249 232 239 248 251 249 246 225 214 238 233 228 227 237 245 247 250 251 228 186 201 214 234 241 239 247 246 234 224 226 224 221 197 177 209 207 243
316 292 249 208 217 229 239 241 250 243 246 249 245 229 220 231 232 229 230 236 239 246 255 255 249 217 202 203 217 232 246 253 246 249 247 247 236 232 220 203 204 213 227
342 328 300 259 237 233 233 233 250 246 245 254 259 248 234 229 230 227 229 242 239 239 242 249 237 217 213 216 234 236 242 250 247 240 241 239 232 223 221 215 205 205 217
329 307 286 273 279 267 237 243 252 248 250 257 262 259 250 232 220 232 230 240 258 245 242 240 235 222 225 228 236 250 258 258 252 243 240 238 234 229 223 215 216 216 219
301 295 292 291 280 279 231 233 253 252 249 261 262 264 265 258 235 230 236 247 260 257 254 250 247 232 228 229 235 240 244 239 236 237 235 233 228 223 210 208 216 220 226
281 276 279 277 283 284 266 234 241 257 260 262 265 271 278 281 282 256 247 253 260 265 270 268 259 243 238 237 240 238 229 230 228 233 234 232 224 212 211 205 212 215 234
280 270 274 268 263 274 276 264 250 241 238 244 252 255 262 266 267 269 266 257 250 249 254 250 247 248 238 235 233 231 230 234 237 235 234 233 228 220 221 215 212 212 220
282 275 268 268 263 261 268 286 281 258 251 243 237 240 254 254 268 273 267 271 268 262 250 242 236 234 235 234 231 232 229 230 230 231 231 225 223 222 225 224 219 217 225
295 295 286 270 266 260 259 259 276 286 274 260 253 250 253 262 267 266 265 264 265 254 247 244 240 237 237 235 233 231 231 229 224 225 230 228 227 227 228 229 225 226 231
305 298 293 278 273 269 263 260 262 269 277 279 270 257 261 265 265 265 267 270 270 245 243 245 243 240 239 239 235 235 237 234 231 228 227 225 224 228 231 229 229 231 233
322 307 294 288 284 279 278 275 272 274 275 279 280 268 265 270 272 267 250 248 249 250 248 249 248 245 242 242 240 235 232 231 233 230 227 225 225 228 234 232 229 233 235
319 311 309 297 285 282 281 281 284 285 286 289 292 287 284 286 278 272 255 251 248 250 250 250 248 245 242 243 242 236 233 232 229 231 233 231 230 231 234 235 234 235 237
305 298 290 292 289 288 285 282 282 285 289 288 286 280 271 271 263 260 260 258 254 251 250 251 251 247 244 245 242 239 237 237 235 235 235 233 229 233 233 232 236 238 241
301 294 289 288 296 302 299 292 289 286 286 285 287 285 275 271 266 264 262 264 263 260 261 255 255 250 243 241 243 239 238 240 239 237 234 230 230 235 239 236 235 240 242
288 290 294 298 299 299 298 297 298 296 294 293 295 293 284 283 278 273 269 266 263 265 267 266 262 261 264 257 255 249 240 237 237 237 238 235 231 233 234 238 241 243 244
297 295 296 297 296 296 296 298 299 299 300 300 300 299 297 294 293 291 290 285 280 274 273 272 266 263 266 269 267 265 262 256 250 242 236 236 233 232 232 236 241 244 245
304 304 303 301 299 298 296 296 297 297 299 300 299 300 300 302 301 298 296 295 293 287 282 281 282 278 273 274 276 274 270 264 260 255 246 235 231 230 230 235 241 246 245
306 308 310 309 310 307 305 305 305 306 306 306 306 306 304 304 303 303 304 303 302 295 290 289 286 285 283 276 271 271 271 264 258 254 249 238 232 232 231 236 240 243 245
Height
1526 1527 1528 1528 1529 1530 1531 1531 1532 1532 1532 1533 1533 1533 1534 1534 1535 1535 1536 1536 1537 1537 1538 1538 1538 1539 1539 1539 1540 1540 1540 1541 1541 1542 1542 1542 1542 1542 1542 1541 1541 1541 1541
1524 1525 1526 1526 1527 1528 1528 1529 1530 1530 1531 1531 1531 1531 1532 1532 1533 1533 1534 1534 1535 1535 1536 1536 1537 1537 1537 1537 1538 1538 1538 1539 1539 1540 1540 1540 1540 1540 1540 1540 1540 1540 1540
1522 1523 1523 1524 1524 1525 1526 1527 1528 1528 1528 1529 1529 1529 1530 1530 1530 1531 1531 1532 1532 1533 1533 1534 1534 1535 1535 1535 1535 1536 1536 1537 1537 1537 1538 1538 1538 1539 1539 1539 1539 1539 1539
1520 1521 1521 1521 1522 1523 1524 1524 1525 1525 1526 1526 1527 1527 1527 1528 1528 1528 1529 1529 1530 1530 1531 1531 1532 1532 1532 1533 1533 1533 1534 1534 1535 1535 1535 1536 1536 1536 1536 1536 1537 1537 1537
1518 1518 1519 1519 1520 1520 1521 1521 1522 1523 1523 1523 1524 1524 1524 1525 1525 1526 1526 1527 1527 1527 1528 1528 1529 1529 1530 1530 1531 1531 1531 1531 1532 1532 1533 1533 1533 1533 1533 1534 1534 1534 1535
1516 1516 1516 1517 1517 1518 1518 1518 1519 1520 1520 1521 1521 1521 1522 1522 1522 1523 1523 1524 1524 1524 1525 1525 1526 1526 1527 1527 1528 1528 1529 1529 1529 1529 1529 1530 1530 1530 1530 1531 1531 1531 1531
1514 1514 1514 1514 1514 1515 1515 1516 1516 1517 1517 1518 1518 1518 1518 1518 1519 1519 1520 1520 1521 1521 1521 1522 1522 1523 1523 1523 1524 1524 1525 1526 1526 1527 1526 1526 1526 1527 1527 1527 1527 1528 1528
1511 1511 1511 1511 1512 1512 1512 1513 1513 1513 1514 1514 1515 1515 1515 1515 1515 1516 1516 1517 1517 1517 1518 1519 1519 1519 1519 1520 1520 1520 1521 1521 1522 1522 1522 1523 1523 1523 1523 1524 1524 1524 1524
1509 1509 1509 1509 1509 1509 1509 1510 1510 1510 1511 1511 1511 1511 1511 1511 1511 1512 1513 1513 1513 1513 1514 1515 1515 1515 1515 1516 1516 1516 1516 1516 1517 1518 1518 1519 1519 1519 1520 1520 1520 1520 1519
1506 1506 1506 1506 1506 1506 1506 1507 1507 1507 1507 1507 1507 1507 1507 1507 1508 1508 1508 1508 1508 1509 1509 1510 1511 1511 1511 1511 1511 1511 1511 1511 1512 1512 1513 1513 1514 1514 1515 1515 1515 1515 1515
1503 1503 1503 1503 1503 1503 1503 1503 1503 1503 1504 1504 1504 1504 1504 1504 1504 1504 1504 1504 1504 1504 1504 1505 1505 1506 1506 1506 1507 1506 1506 1507 1507 1507 1507 1508 1508 1509 1509 1510 1510 1511 1511
1500 1500 1500 1500 1499 1500 1500 1500 1500 1500 1500 1499 1500 1499 1500 1500 1500 1500 1500 1500 1500 1499 1499 1499 1500 1501 1501 1501 1501 1501 1502 1502 1501 1501 1501 1502 1502 1503 1503 1504 1505 1505 1505
1497 1497 1497 1496 1496 1496 1496 1496 1496 1496 1496 1496 1495 1495 1495 1495 1495 1495 1495 1495 1495 1495 1494 1495 1495 1495 1496 1496 1496 1496 1496 1496 1496 1496 1496 1496 1497 1498 1498 1499 1499 1500 1500
1494 1493 1493 1493 1492 1492 1492 1492 1492 1492 1492 1492 1491 1490 1490 1490 1490 1490 1490 1490 1489 1489 1489 1489 1489 1489 1490 1490 1490 1490 1490 1490 1490 1490 1491 1491 1492 1493 1493 1494 1494 1494 1494
1490 1490 1489 1489 1489 1488 1487 1488 1488 1488 1488 1487 1487 1486 1486 1485 1485 1485 1484 1484 1484 1484 1483 1483 1483 1482 1482 1482 1483 1483 1484 1484 1485 1485 1486 1486 1487 1487 1487 1488 1489 1489 1488
1486 1486 1485 1485 1484 1484 1483 1483 1483 1484 1483 1483 1482 1482 1481 1481 1480 1480 1479 1479 1478 1478 1477 1476 1475 1475 1476 1476 1476 1477 1477 1478 1478 1479 1480 1480 1481 1481 1482 1482 1483 1483 1483
1483 1482 1482 1481 1480 1480 1480 1479 1478 1478 1478 1478 1477 1477 1476 1475 1474 1474 1473 1473 1472 1471 1471 1469 1469 1469 1469 1469 1470 1470 1470 1471 1472 1473 1473 1474 1475 1475 1476 1476 1477 1477 1477
1479 1478 1478 1477 1477 1476 1476 1475 1474 1473 1472 1471 1472 1471 1471 1470 1469 1468 1467 1467 1465 1464 1463 1463 1462 1462 1463 1463 1463 1464 1464 1465 1465 1466 1466 1467 1468 1469 1469 1470 1470 1470 1471
1475 1474 1474 1473 1473 1472 1472 1471 1470 1469 1468 1466 1466 1465 1465 1464 1463 1462 1461 1460 1458 1457 1457 1456 1456 1456 1456 1457 1457 1457 1458 1458 1459 1459 1460 1461 1461 1462 1463 1463 1464 1464 1465
1471 1470 1470 1469 1468 1468 1467 1466 1465 1464 1463 1462 1461 1460 1459 1458 1456 1455 1454 1453 1452 1451 1451 1450 1450 1450 1450 1450 1451 1451 1451 1451 1452 1452 1453 1454 1454 1455 1456 1456 1457 1458 1458
1467 1466 1466 1465 1464 1464 1463 1461 1461 1460 1458 1457 1456 1455 1454 1452 1451 1449 1448 1447 1446 1445 1444 1444 1443 1443 1443 1443 1444 1444 1444 1444 1445 1445 1446 1447 1447 1448 1449 1450 1450 1451 1451
1463 1462 1462 1461 1460 1459 1458 1457 1456 1455 1453 1452 1450 1449 1448 1447 1445 1443 1442 1441 1440 1439 1438 1437 1437 1437 1437 1437 1437 1437 1437 1438 1438 1438 1439 1439 1440 1441 1441 1442 1443 1443 1444
1459 1458 1457 1456 1456 1455 1454 1452 1451 1450 1449 1447 1446 1444 1442 1441 1439 1438 1436 1435 1434 1432 1432 1431 1430 1430 1430 1430 1430 1431 1430 1430 1431 1431 1432 1432 1433 1433 1434 1435 1435 1436 1436
1455 1454 1453 1452 1451 1450 1449 1448 1446 1445 1444 1442 1440 1439 1437 1435 1433 1432 1430 1429 1427 1426 1425 1424 1424 1423 1423 1423 1423 1424 1424 1424 1424 1424 1425 1425 1425 1426 1427 1427 1428 1429 1429
1452 1451 1450 1449 1447 1446 1445 1443 1442 1440 1439 1437 1435 1433 1431 1429 1427 1426 1424 1422 1421 1419 1419 1418 1417 1417 1416 1416 1416 1416 1416 1417 1417 1417 1418 1418 1418 1419 1420 1420 1421 1421 1422
1448 1447 1446 1445 1443 1442 1441 1439 1437 1436 1434 1432 1430 1428 1426 1424 1422 1420 1418 1416 1414 1413 1412 1411 1410 1410 1409 1409 1409 1409 1409 1409 1410 1410 1411 1411 1411 1412 1413 1413 1414 1414 1415